GW6872 Weather Reports


Display with metric or nautical units.
time (UTC)temp
F
wind
direction
speed
MPH
gust
MPH
rain 1hr
in
rain 24hr
in
rain mn
in
humidity
%
barometer
mb
20260506084421 52 93 2.0 3.0 0.00 0.00 0.00 63 1006.8
20260506083919 52 149 1.0 3.0 0.00 0.00 0.00 63 1006.8
20260506083418 52 18 2.0 2.0 0.00 0.00 0.00 63 1006.8
20260506082918 52 122 0.0 2.0 0.00 0.00 0.00 64 1006.8
20260506082419 52 107 2.0 3.0 0.00 0.00 0.00 64 1006.4
20260506081918 52 186 2.0 3.0 0.00 0.00 0.00 65 1006.8
20260506081421 52 330 0.0 0.0 0.00 0.00 0.00 66 1006.8
20260506080921 52 51 1.0 1.0 0.00 0.00 0.00 66 1006.8
20260506080420 52 231 1.0 2.0 0.00 0.00 0.00 67 1006.8
20260506073419 50 125 0.0 3.0 0.00 0.00 0.00 72 1006.8
20260506072919 50 295 0.0 2.0 0.00 0.00 0.00 72 1006.8
20260506072418 49 152 1.0 2.0 0.00 0.00 0.00 73 1006.8
20260506071920 49 261 0.0 2.0 0.00 0.00 0.00 74 1006.8
20260506071418 49 138 1.0 2.0 0.00 0.00 0.00 74 1006.8
20260506070919 50 140 0.0 1.0 0.00 0.00 0.00 73 1006.8
20260506070419 49 198 0.0 1.0 0.00 0.00 0.00 74 1006.8
20260506062420 48 191 0.0 0.0 0.00 0.00 0.00 74 1006.4
20260506061921 49 104 0.0 1.0 0.00 0.00 0.00 73 1006.4
20260506061420 48 208 0.0 0.0 0.00 0.00 0.00 74 1006.8
20260506060920 49 83 0.0 2.0 0.00 0.00 0.00 74 1006.8
20260506060419 48 132 0.0 1.0 0.00 0.00 0.00 74 1006.4
20260506050919 48 278 1.0 1.0 0.00 0.00 0.00 76 1006.4
20260506050420 49 0 1.0 2.0 0.00 0.00 0.00 76 1006.1
20260506044921 48 297 0.0 1.0 0.00 0.00 0.00 76 1006.4
20260506044419 48 355 0.0 0.0 0.00 0.00 0.00 76 1006.1
20260506043918 48 50 0.0 2.0 0.00 0.00 0.00 76 1006.1
20260506043419 48 345 0.0 1.0 0.00 0.00 0.00 77 1006.4
20260506042919 49 150 0.0 0.0 0.00 0.00 0.00 76 1006.4
20260506042418 49 193 0.0 0.0 0.00 0.00 0.00 76 1006.1
20260506041918 49 152 1.0 2.0 0.00 0.00 0.00 75 1006.1
20260506041418 49 243 0.0 1.0 0.00 0.00 0.00 74 1006.1
20260506040920 49 271 0.0 1.0 0.00 0.00 0.00 74 1006.1
20260506040418 49 163 0.0 1.0 0.00 0.00 0.00 74 1006.4
20260506035918 49 254 0.0 0.0 0.00 0.00 0.00 74 1006.1
20260506035418 49 193 0.0 1.0 0.00 0.00 0.00 74 1006.1
20260506034919 49 143 0.0 1.0 0.00 0.00 0.00 74 1006.1
20260506034420 49 127 0.0 0.0 0.00 0.00 0.00 74 1006.1
20260506033918 50 105 0.0 1.0 0.00 0.00 0.00 74 1006.1
20260506033421 50 128 0.0 0.0 0.00 0.00 0.00 74 1006.1
20260506032921 50 319 0.0 1.0 0.00 0.00 0.00 74 1006.1
20260506032421 50 78 2.0 2.0 0.00 0.00 0.00 74 1006.4
20260506031918 50 151 0.0 1.0 0.00 0.00 0.00 75 1006.4
20260506031420 50 127 1.0 1.0 0.00 0.00 0.00 75 1006.1
20260506030921 51 182 0.0 0.0 0.00 0.00 0.00 75 1006.4
20260506030421 51 180 0.0 1.0 0.00 0.00 0.00 75 1006.1
20260506025919 51 216 1.0 1.0 0.00 0.00 0.00 75 1006.1
20260506025419 51 191 0.0 0.0 0.00 0.00 0.00 75 1006.4
20260506024918 51 346 1.0 2.0 0.00 0.00 0.00 75 1006.4
20260506024418 51 163 0.0 2.0 0.00 0.00 0.00 76 1006.4
20260506023923 51 270 0.0 1.0 0.00 0.00 0.00 75 1006.4
20260506023418 51 217 0.0 0.0 0.00 0.00 0.00 75 1006.4
20260506022919 51 316 0.0 1.0 0.00 0.00 0.00 75 1006.4
20260506022418 52 202 1.0 2.0 0.00 0.00 0.00 75 1006.4
20260506021920 52 195 0.0 0.0 0.00 0.00 0.00 75 1006.4
20260506021418 52 257 0.0 1.0 0.00 0.00 0.00 75 1006.4
20260506020918 52 208 0.0 0.0 0.00 0.00 0.00 74 1006.4
20260506020421 52 220 0.0 1.0 0.00 0.00 0.00 74 1006.4
20260506015918 52 217 0.0 1.0 0.00 0.00 0.00 74 1006.4
20260506015419 52 261 0.0 1.0 0.00 0.00 0.00 74 1006.4
20260506014919 52 232 0.0 0.0 0.00 0.00 0.00 74 1006.8
20260506014421 52 315 0.0 1.0 0.00 0.00 0.00 74 1006.8
20260506013919 52 147 1.0 1.0 0.00 0.00 0.00 73 1006.8
20260506013420 52 200 0.0 0.0 0.00 0.00 0.00 73 1006.8
20260506012919 52 241 0.0 0.0 0.00 0.00 0.00 73 1006.4
20260506012421 52 213 0.0 0.0 0.00 0.00 0.00 73 1006.8
20260506011920 52 305 0.0 0.0 0.00 0.00 0.00 73 1006.8
20260506011419 52 167 0.0 0.0 0.00 0.00 0.00 73 1006.8
20260506010918 52 9 0.0 1.0 0.00 0.00 0.00 73 1006.4
20260506010418 52 39 1.0 2.0 0.00 0.00 0.00 72 1006.4
20260506005919 52 201 0.0 2.0 0.00 0.00 0.00 72 1006.8
20260506005418 52 341 0.0 0.0 0.00 0.00 0.00 72 1006.8
20260506004918 52 322 0.0 1.0 0.00 0.00 0.00 72 1006.8
20260506004418 52 185 0.0 1.0 0.00 0.00 0.00 72 1006.4
20260506003919 52 215 0.0 1.0 0.00 0.00 0.00 72 1006.8
20260506003421 52 225 0.0 0.0 0.00 0.00 0.00 72 1006.8
20260506002921 52 150 0.0 1.0 0.00 0.00 0.00 72 1006.8
20260506002421 52 356 0.0 1.0 0.00 0.00 0.00 72 1007.1
20260506001918 52 324 1.0 2.0 0.00 0.00 0.00 72 1006.8
20260506001420 53 23 0.0 1.0 0.00 0.00 0.00 72 1007.1
20260506000921 53 226 0.0 1.0 0.00 0.00 0.00 72 1007.1
20260506000423 53 187 0.0 1.0 0.00 0.00 0.00 72 1006.8
20260505235918 53 19 0.0 1.0 0.00 0.00 0.00 72 1006.8
20260505235418 53 239 0.0 0.0 0.00 0.00 0.00 71 1006.8
20260505234920 53 150 0.0 1.0 0.00 0.00 0.00 71 1006.8
20260505234419 53 208 0.0 2.0 0.00 0.00 0.00 71 1006.8
20260505233918 53 18 1.0 2.0 0.00 0.00 0.00 70 1006.8
20260505233419 53 47 1.0 1.0 0.00 0.00 0.00 71 1006.8
20260505232919 53 209 1.0 2.0 0.00 0.00 0.00 71 1006.8
20260505232418 53 268 1.0 2.0 0.00 0.00 0.00 70 1006.8
20260505231921 53 330 0.0 1.0 0.00 0.00 0.00 71 1006.8
20260505231419 54 188 0.0 1.0 0.00 0.00 0.00 72 1006.8
20260505230919 54 221 0.0 1.0 0.00 0.00 0.00 73 1006.8
20260505230418 54 20 1.0 1.0 0.00 0.00 0.00 74 1007.1
20260505225920 54 13 1.0 3.0 0.00 0.00 0.00 77 1006.8
20260505225418 54 221 0.0 1.0 0.00 0.00 0.00 78 1006.8
20260505224919 54 79 0.0 1.0 0.00 0.00 0.00 79 1006.8
20260505224418 54 306 0.0 0.0 0.00 0.00 0.00 80 1006.8
20260505223919 54 84 0.0 0.0 0.00 0.00 0.00 79 1006.8
20260505223419 54 345 0.0 1.0 0.00 0.00 0.00 78 1006.8
20260505222918 54 287 0.0 1.0 0.00 0.00 0.00 77 1006.8
20260505222420 55 219 1.0 1.0 0.00 0.00 0.00 75 1006.8
20260505221918 55 237 0.0 1.0 0.00 0.00 0.00 75 1006.8
20260505221421 55 235 0.0 1.0 0.00 0.00 0.00 74 1006.8
20260505220920 55 231 0.0 1.0 0.00 0.00 0.00 72 1006.8
20260505220420 55 282 0.0 1.0 0.00 0.00 0.00 71 1006.8
20260505215921 56 210 0.0 1.0 0.00 0.00 0.00 67 1006.8
20260505215422 56 275 0.0 0.0 0.00 0.00 0.00 66 1006.8
20260505214922 56 224 0.0 1.0 0.00 0.00 0.00 66 1006.8
20260505214422 56 190 0.0 0.0 0.00 0.00 0.00 67 1006.8
20260505213921 55 275 0.0 0.0 0.00 0.00 0.00 67 1006.4
20260505213420 55 142 0.0 0.0 0.00 0.00 0.00 67 1006.8
20260505212920 55 284 0.0 0.0 0.00 0.00 0.00 68 1006.4
20260505212419 55 301 0.0 1.0 0.00 0.00 0.00 68 1006.4
20260505211922 55 282 1.0 3.0 0.00 0.00 0.00 67 1006.4
20260505211418 56 291 0.0 1.0 0.00 0.00 0.00 67 1006.4
20260505210918 55 191 0.0 0.0 0.00 0.00 0.00 67 1006.4
20260505210418 55 229 0.0 0.0 0.00 0.00 0.00 67 1006.8
20260505205918 55 336 0.0 3.0 0.00 0.00 0.00 67 1006.4
20260505205422 55 298 0.0 2.0 0.00 0.00 0.00 68 1006.8
20260505204921 55 307 1.0 3.0 0.00 0.00 0.00 68 1006.4
20260505204418 55 355 0.0 3.0 0.00 0.00 0.00 68 1006.4
20260505203919 56 342 1.0 2.0 0.00 0.00 0.00 68 1006.4
20260505203420 56 36 0.0 0.0 0.00 0.00 0.00 69 1006.4
20260505202919 56 325 0.0 0.0 0.00 0.00 0.00 69 1006.4
20260505202421 57 324 0.0 1.0 0.00 0.00 0.00 68 1006.4
20260505201920 57 327 0.0 0.0 0.00 0.00 0.00 69 1006.4
20260505201418 57 240 0.0 0.0 0.00 0.00 0.00 68 1006.4
20260505200918 57 266 0.0 1.0 0.00 0.00 0.00 65 1006.4
20260505200420 57 303 0.0 0.0 0.00 0.00 0.00 63 1006.1
20260505195919 57 319 0.0 1.0 0.00 0.00 0.00 62 1006.1
20260505195418 57 236 0.0 2.0 0.00 0.00 0.00 62 1006.1
20260505194921 58 283 0.0 0.0 0.00 0.00 0.00 61 1005.8
20260505194420 59 276 0.0 0.0 0.00 0.00 0.00 61 1005.8
20260505193918 59 188 0.0 0.0 0.00 0.00 0.00 59 1005.8
20260505193421 59 18 1.0 2.0 0.00 0.00 0.00 58 1005.8
20260505192921 59 266 0.0 0.0 0.00 0.00 0.00 58 1005.8
20260505192421 59 263 0.0 0.0 0.00 0.00 0.00 59 1005.4
20260505191923 59 336 1.0 1.0 0.00 0.00 0.00 56 1005.4
20260505191418 59 289 0.0 0.0 0.00 0.00 0.00 57 1005.4
20260505190918 60 270 1.0 1.0 0.00 0.00 0.00 55 1005.4
20260505190418 60 67 0.0 0.0 0.00 0.00 0.00 55 1005.4
20260505185924 60 255 0.0 0.0 0.00 0.00 0.00 55 1005.4
20260505185424 60 271 0.0 0.0 0.00 0.00 0.00 55 1005.4
20260505184919 60 258 0.0 0.0 0.00 0.00 0.00 54 1005.4
20260505184421 60 221 0.0 0.0 0.00 0.00 0.00 54 1005.1
20260505183919 60 181 0.0 0.0 0.00 0.00 0.00 54 1005.1
20260505183423 59 246 0.0 0.0 0.00 0.00 0.00 55 1005.4
20260505182920 60 351 1.0 2.0 0.00 0.00 0.00 54 1005.1
20260505182421 60 311 0.0 0.0 0.00 0.00 0.00 54 1005.1
20260505181920 60 297 0.0 2.0 0.00 0.00 0.00 54 1005.4
20260505181422 59 209 0.0 0.0 0.00 0.00 0.00 55 1005.1
20260505180919 60 299 1.0 2.0 0.00 0.00 0.00 54 1005.1
20260505180421 60 202 0.0 1.0 0.00 0.00 0.00 55 1005.1
20260505175922 60 8 1.0 3.0 0.00 0.00 0.00 55 1005.4
20260505175419 60 318 0.0 1.0 0.00 0.00 0.00 54 1005.1
20260505174919 60 232 0.0 1.0 0.00 0.00 0.00 54 1005.1
20260505174421 60 342 0.0 2.0 0.00 0.00 0.00 54 1005.4
20260505173921 60 277 1.0 1.0 0.00 0.00 0.00 54 1005.4
20260505173418 60 79 0.0 1.0 0.00 0.00 0.00 54 1005.1
20260505172920 61 280 0.0 0.0 0.00 0.00 0.00 54 1005.1
20260505172418 61 204 0.0 0.0 0.00 0.00 0.00 53 1005.4
20260505171918 61 273 0.0 0.0 0.00 0.00 0.00 53 1005.4
20260505171419 61 309 1.0 2.0 0.00 0.00 0.00 52 1005.1
20260505170923 61 295 1.0 2.0 0.00 0.00 0.00 52 1005.4
20260505170421 61 275 1.0 1.0 0.00 0.00 0.00 52 1005.4
20260505165920 61 346 0.0 0.0 0.00 0.00 0.00 51 1005.4
20260505165421 61 338 1.0 2.0 0.00 0.00 0.00 51 1005.4
20260505164918 61 2 2.0 3.0 0.00 0.00 0.00 51 1005.4
20260505164421 62 345 0.0 2.0 0.00 0.00 0.00 50 1005.1
20260505163919 62 315 1.0 1.0 0.00 0.00 0.00 50 1005.4
20260505163424 61 253 0.0 3.0 0.00 0.00 0.00 51 1005.1
20260505162918 62 314 1.0 6.0 0.00 0.00 0.00 50 1005.4
20260505162421 62 49 1.0 3.0 0.00 0.00 0.00 50 1005.4
20260505161920 63 272 1.0 2.0 0.00 0.00 0.00 49 1005.4
20260505161419 63 310 1.0 3.0 0.00 0.00 0.00 49 1005.1
20260505160923 63 333 0.0 1.0 0.00 0.00 0.00 49 1005.4
20260505160421 63 286 1.0 2.0 0.00 0.00 0.00 49 1005.4
20260505152921 65 34 1.0 1.0 0.00 0.00 0.00 48 1005.4
20260505152422 64 78 0.0 0.0 0.00 0.00 0.00 48 1005.4
20260505151923 64 261 0.0 1.0 0.00 0.00 0.00 48 1005.4
20260505151428 64 136 0.0 0.0 0.00 0.00 0.00 49 1005.4
20260505150918 63 189 0.0 1.0 0.00 0.00 0.00 48 1005.4
20260505150421 63 101 0.0 1.0 0.00 0.00 0.00 48 1005.4
20260505140423 66 160 0.0 0.0 0.00 0.00 0.00 46 1005.8
20260505124918 64 56 1.0 3.0 0.00 0.00 0.00 50 1005.8
20260505124420 64 261 0.0 1.0 0.00 0.00 0.00 49 1006.1
20260505123923 64 14 0.0 2.0 0.00 0.00 0.00 49 1006.1
20260505123418 65 85 1.0 2.0 0.00 0.00 0.00 49 1006.1
20260505122922 65 258 0.0 1.0 0.00 0.00 0.00 49 1005.8
20260505122419 64 307 0.0 1.0 0.00 0.00 0.00 49 1006.1
20260505121921 63 236 0.0 2.0 0.00 0.00 0.00 50 1005.8
20260505121418 64 146 1.0 5.0 0.00 0.00 0.00 50 1006.1
20260505120922 66 335 0.0 1.0 0.00 0.00 0.00 48 1006.1
20260505120418 65 277 0.0 1.0 0.00 0.00 0.00 48 1005.8
20260505115919 66 171 0.0 2.0 0.00 0.00 0.00 48 1006.1
20260505115421 66 178 0.0 1.0 0.00 0.00 0.00 48 1006.1
20260505114918 65 249 0.0 1.0 0.00 0.00 0.00 49 1005.8
20260505114418 65 218 0.0 1.0 0.00 0.00 0.00 49 1006.1
20260505113918 65 317 2.0 3.0 0.00 0.00 0.00 49 1006.1
20260505113419 65 93 1.0 2.0 0.00 0.00 0.00 49 1006.1
20260505112918 66 304 0.0 2.0 0.00 0.00 0.00 48 1006.1
20260505112420 67 18 0.0 2.0 0.00 0.00 0.00 47 1006.4
20260505111920 67 292 0.0 0.0 0.00 0.00 0.00 47 1006.1
20260505111422 67 311 1.0 2.0 0.00 0.00 0.00 47 1006.1
20260505110920 66 216 0.0 1.0 0.00 0.00 0.00 51 1006.1
20260505110419 67 227 0.0 1.0 0.00 0.00 0.00 49 1006.1
20260505101920 61 169 1.0 2.0 0.00 0.00 0.00 58 1006.8
20260505101421 60 146 1.0 3.0 0.00 0.00 0.00 60 1006.8
20260505100921 60 317 0.0 2.0 0.00 0.00 0.00 59 1006.8
20260505100421 59 208 0.0 2.0 0.00 0.00 0.00 60 1006.8
20260505095922 59 215 0.0 1.0 0.00 0.00 0.00 61 1006.8
20260505095421 58 176 0.0 5.0 0.00 0.00 0.00 63 1006.8
20260505094920 58 185 3.0 6.0 0.00 0.00 0.00 65 1006.8
20260505094418 58 218 0.0 0.0 0.00 0.00 0.00 66 1006.8
20260505093920 58 105 2.0 3.0 0.00 0.00 0.00 66 1006.8
20260505093420 58 229 0.0 1.0 0.00 0.00 0.00 65 1006.8
20260505092920 58 342 0.0 1.0 0.00 0.00 0.00 66 1006.8
20260505092419 58 153 0.0 1.0 0.00 0.00 0.00 66 1006.8
20260505091921 58 207 0.0 1.0 0.00 0.00 0.00 66 1006.8
20260505091420 58 336 0.0 1.0 0.00 0.00 0.00 66 1006.8
20260505090920 57 208 0.0 1.0 0.00 0.00 0.00 68 1006.8
20260505090422 57 282 0.0 2.0 0.00 0.00 0.00 68 1007.1
20260505085920 57 86 1.0 1.0 0.00 0.00 0.00 68 1007.1
20260505085421 59 264 0.0 1.0 0.00 0.00 0.00 67 1007.1
20260505084918 58 348 0.0 1.0 0.00 0.00 0.00 68 1007.1